User: anonymous   Login
Location: Bílinka
(49.3579°N, 14.3767°E)
Time: 02:05:46
(UTC+00:00)
Language:

Cosmos 1975 Rocket - Orbit

View from above orbital plane
View from above orbital plane
View from above satellite
View from above satellite

Ground track
Ground track

The orbit data is extracted from the following two-line orbital elements,

1 19574U 88093B   23147.86705166  .00000518  00000-0  59316-4 0  9992
2 19574  82.5312 275.1291 0022053 154.9729 321.8129 14.83877977871244
Epoch (UTC): 27 May 2023 20:48:33
Eccentricity: 0.0022053
inclination: 82.5312°
perigee height: 601 km
apogee height: 632 km
right ascension of ascending node: 275.1291°
argument of perigee: 154.9729°
revolutions per day: 14.83877977
mean anomaly at epoch: 321.8129°
orbit number at epoch: 87124

The dashed part of the orbit path shows where the satellite is in the earth's shadow,  

DLR